Flag for U.S.A. Weather past 2 weeks in Montpelier, Vermont, U.S.A.

Now
29 °F

Sunny.


Feels Like: 20 °F
Forecast: 16 / 35 °F
Wind: 10 mph from West

Location: Knapp State Airport

Current Time: Apr 1, 2015 at 2:22:00 PM

Latest Report: Apr 1, 2015 at 1:51 PM


Visibility: 10 mi

Pressure: 30.11 "Hg

Humidity: 33%

Dew point: 3 °F

Location of MontpelierLocation

Historic Weather in Montpelier — Graph

°F

Montpelier temperature yesterday

Maximum temperature yesterday: 34 °F (at 3:51 PM)
Minimum temperature yesterday: 19 °F (at 11:51 PM)
Average temperature yesterday: 29 °F

Past Weeks' High & Low Weather Summary

 TemperatureHumidityPressure
High47 °F (Mar 26, 11:51 AM)100% (Mar 26, 7:51 PM)30.45 "Hg (Mar 26, 7:51 PM)
Low0 °F (Mar 24, 6:51 AM)25% (Mar 29, 4:51 PM)29.51 "Hg (Mar 17, 12:51 PM)
Average23 °F63%30.04 "Hg
* Reported Mar 17 12:51 PM — Apr 1 12:51 PM, Montpelier, Weather by CustomWeather, © 2015

Note: Actual official high and low records may vary slightly from our data, if they occured in-between our weather recording intervals... More about our weather records

Advertising

Montpelier weather history for previous 24 hours

 ConditionsComfort  
Time TempWeatherWind HumidityBarometerVisibility
12:51 PM
Wed, Apr 1
29 °FSunny.13 mph38%30.12 "Hg10 mi
11:51 AM27 °FSunny.15 mph39%30.11 "Hg10 mi
10:51 AM27 °FSunny.8 mph37%30.09 "Hg10 mi
9:51 AM25 °FSunny.5 mph50%30.08 "Hg10 mi
8:51 AM21 °FSunny.No wind62%30.08 "Hg10 mi
7:51 AM18 °FSunny.No wind65%30.06 "Hg10 mi
6:51 AM13 °FClear.No wind70%30.02 "Hg10 mi
5:51 AM15 °FClear.No wind61%29.98 "Hg10 mi
4:51 AM19 °FClear.No wind52%29.95 "Hg10 mi
3:51 AM21 °FClear.5 mph47%29.93 "Hg10 mi
2:51 AM21 °FClear.No wind47%29.92 "Hg10 mi
1:51 AM19 °FClear.5 mph52%29.91 "Hg10 mi
12:51 AM16 °FClear.No wind62%29.91 "Hg10 mi
11:51 PM
Tue, Mar 31
19 °FClear.3 mph52%29.91 "Hg10 mi
10:51 PM23 °FClear.5 mph48%29.90 "Hg10 mi
9:51 PM24 °FClear.No wind44%29.90 "Hg10 mi
8:51 PM27 °FClear.No wind39%29.88 "Hg10 mi
7:51 PM28 °FSunny.7 mph37%29.85 "Hg10 mi
6:51 PM32 °FSunny.7 mph33%29.82 "Hg10 mi
5:51 PM34 °FSunny.8 mph34%29.80 "Hg10 mi
4:51 PM33 °FSunny.9 mph35%29.79 "Hg10 mi
3:51 PM34 °FSunny.12 mph34%29.78 "Hg10 mi
2:51 PM33 °FSunny.8 mph40%29.78 "Hg10 mi
Weather by CustomWeather, © 2015

See weather overviewHow to use our weather pages